Time,TemperatureF,DewpointF,PressureIn,WindDirection,WindDirectionDegrees,WindSpeedMPH,WindSpeedGustMPH,Humidity,HourlyPrecipIn,Conditions,Clouds,dailyrainin,SolarRadiationWatts/m^2,SoftwareType,DateUTC
2013-05-31 00:04:00,58.3,55.4,29.58,SE,128,4.0,4.0,90,0.00,,,0.00,0,Wunderground v.1.15,2013-05-31 05:04:00,
2013-05-31 00:09:00,58.4,55.5,29.57,SE,128,3.0,4.0,90,0.00,,,0.00,0,Wunderground v.1.15,2013-05-31 05:09:00,
2013-05-31 00:14:00,58.2,55.3,29.57,SE,128,3.0,5.0,90,0.00,,,0.00,0,Wunderground v.1.15,2013-05-31 05:14:00,
2013-05-31 00:20:00,58.4,55.5,29.57,SE,128,3.0,3.0,90,0.00,,,0.00,0,Wunderground v.1.15,2013-05-31 05:20:00,
2013-05-31 00:26:00,58.6,55.7,29.58,SE,128,3.0,4.0,90,0.00,,,0.00,0,Wunderground v.1.15,2013-05-31 05:26:00,
2013-05-31 00:32:00,58.7,55.5,29.59,SE,128,3.0,4.0,89,0.00,,,0.00,0,Wunderground v.1.15,2013-05-31 05:32:00,
2013-05-31 00:37:00,58.8,55.6,29.60,SE,132,3.0,4.0,89,0.00,,,0.00,0,Wunderground v.1.15,2013-05-31 05:37:00,
2013-05-31 00:42:00,58.9,55.7,29.59,SE,144,4.0,5.0,89,0.00,,,0.00,0,Wunderground v.1.15,2013-05-31 05:42:00,
2013-05-31 00:47:00,59.0,55.8,29.60,SE,145,4.0,6.0,89,0.00,,,0.00,0,Wunderground v.1.15,2013-05-31 05:47:00,
2013-05-31 00:52:00,59.0,55.8,29.60,SSE,147,5.0,8.0,89,0.00,,,0.00,0,Wunderground v.1.15,2013-05-31 05:52:00,
2013-05-31 00:58:00,58.9,55.7,29.60,SSE,161,5.0,8.0,89,0.00,,,0.00,0,Wunderground v.1.15,2013-05-31 05:58:00,
2013-05-31 01:03:00,58.9,55.7,29.60,SSE,160,6.0,7.0,89,0.00,,,0.00,0,Wunderground v.1.15,2013-05-31 06:03:00,
2013-05-31 01:08:00,58.8,55.6,29.60,South,175,6.0,10.0,89,0.00,,,0.00,0,Wunderground v.1.15,2013-05-31 06:08:00,
2013-05-31 01:13:00,59.0,55.4,29.60,South,181,7.0,8.0,88,0.00,,,0.00,0,Wunderground v.1.15,2013-05-31 06:13:00,
2013-05-31 01:19:00,59.2,55.6,29.60,South,188,6.0,8.0,88,0.00,,,0.00,0,Wunderground v.1.15,2013-05-31 06:19:00,
2013-05-31 01:25:00,59.5,55.6,29.60,SSW,192,6.0,6.0,87,0.00,,,0.00,0,Wunderground v.1.15,2013-05-31 06:25:00,
2013-05-31 01:31:00,59.8,55.6,29.61,SSW,192,6.0,9.0,86,0.00,,,0.00,0,Wunderground v.1.15,2013-05-31 06:31:00,
2013-05-31 01:36:00,59.8,55.3,29.61,South,184,6.0,9.0,85,0.00,,,0.00,0,Wunderground v.1.15,2013-05-31 06:36:00,
2013-05-31 01:41:00,59.7,55.2,29.60,South,184,5.0,6.0,85,0.00,,,0.00,0,Wunderground v.1.15,2013-05-31 06:41:00,
2013-05-31 01:46:00,59.6,55.1,29.60,SSW,192,5.0,7.0,85,0.00,,,0.00,0,Wunderground v.1.15,2013-05-31 06:46:00,
2013-05-31 01:51:00,59.6,55.1,29.60,SSW,194,6.0,6.0,85,0.00,,,0.00,0,Wunderground v.1.15,2013-05-31 06:51:00,
2013-05-31 01:56:00,59.7,54.9,29.60,SSW,211,6.0,11.0,84,0.00,,,0.00,0,Wunderground v.1.15,2013-05-31 06:56:00,
2013-05-31 02:02:00,59.8,55.0,29.59,SSW,194,6.0,6.0,84,0.00,,,0.00,0,Wunderground v.1.15,2013-05-31 07:02:00,
2013-05-31 02:08:00,59.8,54.6,29.60,SSW,193,6.0,7.0,83,0.00,,,0.00,0,Wunderground v.1.15,2013-05-31 07:08:00,
2013-05-31 02:14:00,59.8,54.3,29.60,SW,235,6.0,11.0,82,0.00,,,0.00,0,Wunderground v.1.15,2013-05-31 07:14:00,
2013-05-31 02:20:00,59.8,54.3,29.60,SSW,210,7.0,8.0,82,0.00,,,0.00,0,Wunderground v.1.15,2013-05-31 07:20:00,
2013-05-31 02:25:00,59.9,54.4,29.60,SSW,202,6.0,8.0,82,0.00,,,0.00,0,Wunderground v.1.15,2013-05-31 07:25:00,
2013-05-31 02:30:00,60.0,54.2,29.59,SSW,207,7.0,7.0,81,0.00,,,0.00,0,Wunderground v.1.15,2013-05-31 07:30:00,
2013-05-31 02:36:00,60.2,54.0,29.59,SSW,209,7.0,10.0,80,0.00,,,0.00,0,Wunderground v.1.15,2013-05-31 07:36:00,
2013-05-31 02:42:00,60.3,54.1,29.59,SSW,213,7.0,7.0,80,0.00,,,0.00,0,Wunderground v.1.15,2013-05-31 07:42:00,
2013-05-31 02:47:00,60.4,53.9,29.59,SSW,211,7.0,8.0,79,0.00,,,0.00,0,Wunderground v.1.15,2013-05-31 07:47:00,
2013-05-31 02:52:00,60.4,53.9,29.59,SSW,204,6.0,7.0,79,0.00,,,0.00,0,Wunderground v.1.15,2013-05-31 07:52:00,
2013-05-31 02:58:00,60.3,53.8,29.59,SSW,205,6.0,8.0,79,0.00,,,0.00,0,Wunderground v.1.15,2013-05-31 07:58:00,
2013-05-31 03:04:00,60.2,53.7,29.58,SW,228,6.0,8.0,79,0.00,,,0.00,0,Wunderground v.1.15,2013-05-31 08:04:00,
2013-05-31 03:09:00,60.2,53.7,29.58,SSW,209,5.0,8.0,79,0.00,,,0.00,0,Wunderground v.1.15,2013-05-31 08:09:00,
2013-05-31 03:14:00,60.1,53.6,29.59,SW,223,5.0,5.0,79,0.00,,,0.00,0,Wunderground v.1.15,2013-05-31 08:14:00,
2013-05-31 03:20:00,59.6,53.4,29.59,SW,225,4.0,4.0,80,0.00,,,0.00,0,Wunderground v.1.15,2013-05-31 08:20:00,
2013-05-31 03:26:00,59.3,53.5,29.58,SW,236,3.0,4.0,81,0.00,,,0.00,0,Wunderground v.1.15,2013-05-31 08:26:00,
2013-05-31 03:31:00,59.0,53.5,29.58,SW,234,3.0,4.0,82,0.00,,,0.00,0,Wunderground v.1.15,2013-05-31 08:31:00,
2013-05-31 03:37:00,58.9,53.4,29.58,WSW,247,3.0,5.0,82,0.00,,,0.00,0,Wunderground v.1.15,2013-05-31 08:37:00,
2013-05-31 03:42:00,59.0,53.5,29.59,WSW,247,3.0,4.0,82,0.00,,,0.00,0,Wunderground v.1.15,2013-05-31 08:42:00,
2013-05-31 03:47:00,58.9,53.4,29.59,WSW,247,3.0,4.0,82,0.00,,,0.00,0,Wunderground v.1.15,2013-05-31 08:47:00,
2013-05-31 03:52:00,58.7,53.2,29.59,WSW,245,2.0,4.0,82,0.00,,,0.00,0,Wunderground v.1.15,2013-05-31 08:52:00,
2013-05-31 03:57:00,58.3,53.5,29.59,WSW,244,3.0,4.0,84,0.00,,,0.00,0,Wunderground v.1.15,2013-05-31 08:57:00,
2013-05-31 04:02:00,57.8,53.0,29.59,WSW,243,3.0,4.0,84,0.00,,,0.00,0,Wunderground v.1.15,2013-05-31 09:02:00,
2013-05-31 04:08:00,57.9,53.4,29.60,SSW,204,3.0,6.0,85,0.00,,,0.00,0,Wunderground v.1.15,2013-05-31 09:08:00,
2013-05-31 04:13:00,58.0,53.5,29.59,South,182,4.0,6.0,85,0.00,,,0.00,0,Wunderground v.1.15,2013-05-31 09:13:00,
2013-05-31 04:18:00,57.9,53.4,29.59,South,181,4.0,6.0,85,0.00,,,0.00,0,Wunderground v.1.15,2013-05-31 09:18:00,
2013-05-31 04:23:00,57.7,53.2,29.58,South,181,4.0,5.0,85,0.00,,,0.00,0,Wunderground v.1.15,2013-05-31 09:23:00,
2013-05-31 04:28:00,58.0,53.5,29.58,South,190,4.0,6.0,85,0.00,,,0.00,0,Wunderground v.1.15,2013-05-31 09:28:00,
2013-05-31 04:34:00,58.2,53.4,29.58,South,190,4.0,7.0,84,0.00,,,0.00,0,Wunderground v.1.15,2013-05-31 09:34:00,
2013-05-31 04:40:00,58.4,53.3,29.58,SSW,209,5.0,5.0,83,0.00,,,0.00,0,Wunderground v.1.15,2013-05-31 09:40:00,
2013-05-31 04:46:00,58.6,53.5,29.57,SSW,208,5.0,5.0,83,0.00,,,0.00,0,Wunderground v.1.15,2013-05-31 09:46:00,
2013-05-31 04:51:00,58.5,53.0,29.58,SSW,208,4.0,4.0,82,0.00,,,0.00,0,Wunderground v.1.15,2013-05-31 09:51:00,
2013-05-31 04:57:00,58.2,53.1,29.58,SSW,208,3.0,4.0,83,0.00,,,0.00,0,Wunderground v.1.15,2013-05-31 09:57:00,
2013-05-31 05:02:00,58.2,53.1,29.58,SSW,208,4.0,5.0,83,0.00,,,0.00,0,Wunderground v.1.15,2013-05-31 10:02:00,
2013-05-31 05:07:00,58.3,53.2,29.58,SSW,208,4.0,5.0,83,0.00,,,0.00,0,Wunderground v.1.15,2013-05-31 10:07:00,
2013-05-31 05:12:00,58.3,53.2,29.58,SW,219,4.0,4.0,83,0.00,,,0.00,0,Wunderground v.1.15,2013-05-31 10:12:00,
2013-05-31 05:18:00,58.5,53.0,29.58,SW,229,4.0,7.0,82,0.00,,,0.00,0,Wunderground v.1.15,2013-05-31 10:18:00,
2013-05-31 05:24:00,58.7,52.5,29.57,SW,233,4.0,5.0,80,0.00,,,0.00,0,Wunderground v.1.15,2013-05-31 10:24:00,
2013-05-31 05:30:00,59.1,52.6,29.57,WSW,237,4.0,4.0,79,0.00,,,0.00,0,Wunderground v.1.15,2013-05-31 10:30:00,
2013-05-31 05:36:00,59.6,52.7,29.57,SW,234,4.0,6.0,78,0.00,,,0.00,0,Wunderground v.1.15,2013-05-31 10:36:00,
2013-05-31 05:42:00,59.9,52.7,29.57,SW,234,4.0,4.0,77,0.00,,,0.00,0,Wunderground v.1.15,2013-05-31 10:42:00,
2013-05-31 05:47:00,59.9,52.3,29.58,SW,236,3.0,5.0,76,0.00,,,0.00,0,Wunderground v.1.15,2013-05-31 10:47:00,
2013-05-31 05:52:00,59.9,52.3,29.58,SW,236,4.0,5.0,76,0.00,,,0.00,0,Wunderground v.1.15,2013-05-31 10:52:00,
2013-05-31 05:57:00,59.9,52.3,29.58,SW,236,4.0,5.0,76,0.00,,,0.00,7,Wunderground v.1.15,2013-05-31 10:57:00,
2013-05-31 06:03:00,59.8,52.6,29.58,SW,232,4.0,5.0,77,0.00,,,0.00,9,Wunderground v.1.15,2013-05-31 11:03:00,
2013-05-31 06:09:00,59.7,52.5,29.58,SW,228,4.0,7.0,77,0.00,,,0.00,12,Wunderground v.1.15,2013-05-31 11:09:00,
2013-05-31 06:15:00,59.8,52.6,29.58,SW,225,5.0,7.0,77,0.00,,,0.00,16,Wunderground v.1.15,2013-05-31 11:15:00,
2013-05-31 06:21:00,59.9,52.7,29.58,SW,227,5.0,5.0,77,0.00,,,0.00,19,Wunderground v.1.15,2013-05-31 11:21:00,
2013-05-31 06:27:00,59.8,52.9,29.58,SW,228,4.0,7.0,78,0.00,,,0.00,26,Wunderground v.1.15,2013-05-31 11:27:00,
2013-05-31 06:33:00,59.9,53.0,29.58,SW,228,4.0,5.0,78,0.00,,,0.00,44,Wunderground v.1.15,2013-05-31 11:33:00,
2013-05-31 06:39:00,60.0,53.1,29.58,SW,228,3.0,5.0,78,0.00,,,0.00,58,Wunderground v.1.15,2013-05-31 11:39:00,
2013-05-31 06:45:00,59.9,53.0,29.59,SSW,204,4.0,5.0,78,0.00,,,0.00,74,Wunderground v.1.15,2013-05-31 11:45:00,
2013-05-31 06:50:00,59.1,53.3,29.59,South,185,5.0,5.0,81,0.00,,,0.00,86,Wunderground v.1.15,2013-05-31 11:50:00,
2013-05-31 06:56:00,58.9,53.4,29.58,South,186,4.0,5.0,82,0.00,,,0.00,105,Wunderground v.1.15,2013-05-31 11:56:00,
2013-05-31 07:01:00,59.3,53.8,29.58,South,186,3.0,4.0,82,0.00,,,0.00,121,Wunderground v.1.15,2013-05-31 12:01:00,
2013-05-31 07:07:00,59.7,53.9,29.58,SW,217,4.0,5.0,81,0.00,,,0.00,141,Wunderground v.1.15,2013-05-31 12:07:00,
2013-05-31 07:12:00,60.6,54.0,29.58,SW,229,4.0,7.0,79,0.00,,,0.00,162,Wunderground v.1.15,2013-05-31 12:12:00,
2013-05-31 07:17:00,61.6,54.0,29.59,SW,229,4.0,7.0,76,0.00,,,0.00,176,Wunderground v.1.15,2013-05-31 12:17:00,
2013-05-31 07:22:00,62.1,53.7,29.59,WSW,239,4.0,8.0,74,0.00,,,0.00,197,Wunderground v.1.15,2013-05-31 12:22:00,
2013-05-31 07:27:00,62.5,53.3,29.59,WSW,237,4.0,8.0,72,0.00,,,0.00,218,Wunderground v.1.15,2013-05-31 12:27:00,
2013-05-31 07:32:00,62.9,53.7,29.59,WSW,237,3.0,4.0,72,0.00,,,0.00,234,Wunderground v.1.15,2013-05-31 12:32:00,
2013-05-31 07:38:00,63.3,53.3,29.60,SW,232,3.0,5.0,70,0.00,,,0.00,258,Wunderground v.1.15,2013-05-31 12:38:00,
2013-05-31 07:44:00,63.7,54.5,29.60,SW,232,3.0,5.0,72,0.00,,,0.00,278,Wunderground v.1.15,2013-05-31 12:44:00,
2013-05-31 07:50:00,63.9,55.1,29.60,SW,232,3.0,3.0,73,0.00,,,0.00,295,Wunderground v.1.15,2013-05-31 12:50:00,
2013-05-31 07:55:00,64.2,54.2,29.60,SW,228,4.0,5.0,70,0.00,,,0.00,311,Wunderground v.1.15,2013-05-31 12:55:00,
2013-05-31 08:00:00,64.4,53.6,29.60,SW,229,4.0,5.0,68,0.00,,,0.00,327,Wunderground v.1.15,2013-05-31 13:00:00,
2013-05-31 08:05:00,64.8,53.2,29.60,SW,231,3.0,5.0,66,0.00,,,0.00,343,Wunderground v.1.15,2013-05-31 13:05:00,
2013-05-31 08:10:00,65.0,53.8,29.60,SW,225,4.0,4.0,67,0.00,,,0.00,359,Wunderground v.1.15,2013-05-31 13:10:00,
2013-05-31 08:15:00,65.2,52.7,29.61,SW,235,4.0,6.0,64,0.00,,,0.00,374,Wunderground v.1.15,2013-05-31 13:15:00,
2013-05-31 08:21:00,65.4,53.3,29.61,WSW,240,5.0,6.0,65,0.00,,,0.00,392,Wunderground v.1.15,2013-05-31 13:21:00,
2013-05-31 08:27:00,65.8,52.9,29.61,WSW,248,5.0,8.0,63,0.00,,,0.00,413,Wunderground v.1.15,2013-05-31 13:27:00,
2013-05-31 08:33:00,66.2,53.2,29.62,West,273,5.0,7.0,63,0.00,,,0.00,429,Wunderground v.1.15,2013-05-31 13:33:00,
2013-05-31 08:39:00,66.1,52.3,29.62,West,259,6.0,10.0,61,0.00,,,0.00,450,Wunderground v.1.15,2013-05-31 13:39:00,
2013-05-31 08:45:00,66.3,52.9,29.62,West,259,6.0,7.0,62,0.00,,,0.00,468,Wunderground v.1.15,2013-05-31 13:45:00,
2013-05-31 08:51:00,66.7,52.8,29.63,West,267,5.0,7.0,61,0.00,,,0.00,489,Wunderground v.1.15,2013-05-31 13:51:00,
2013-05-31 08:57:00,66.9,52.1,29.63,West,269,5.0,9.0,59,0.00,,,0.00,504,Wunderground v.1.15,2013-05-31 13:57:00,
2013-05-31 09:03:00,67.0,51.7,29.63,West,262,6.0,7.0,58,0.00,,,0.00,524,Wunderground v.1.15,2013-05-31 14:03:00,
2013-05-31 09:09:00,67.0,53.1,29.63,West,263,6.0,10.0,61,0.00,,,0.00,538,Wunderground v.1.15,2013-05-31 14:09:00,
2013-05-31 09:15:00,67.2,52.4,29.63,WSW,249,5.0,7.0,59,0.00,,,0.00,557,Wunderground v.1.15,2013-05-31 14:15:00,
2013-05-31 09:20:00,67.5,53.1,29.63,WSW,241,5.0,5.0,60,0.00,,,0.00,575,Wunderground v.1.15,2013-05-31 14:20:00,
2013-05-31 09:25:00,67.7,53.8,29.63,SW,232,5.0,7.0,61,0.00,,,0.00,585,Wunderground v.1.15,2013-05-31 14:25:00,
2013-05-31 09:31:00,67.9,53.5,29.63,SW,225,5.0,5.0,60,0.00,,,0.00,605,Wunderground v.1.15,2013-05-31 14:31:00,
2013-05-31 09:37:00,68.2,54.2,29.63,SSW,209,4.0,6.0,61,0.00,,,0.00,622,Wunderground v.1.15,2013-05-31 14:37:00,
2013-05-31 09:42:00,68.2,53.8,29.63,WSW,253,5.0,10.0,60,0.00,,,0.00,635,Wunderground v.1.15,2013-05-31 14:42:00,
2013-05-31 09:47:00,68.2,53.8,29.63,WSW,240,6.0,10.0,60,0.00,,,0.00,650,Wunderground v.1.15,2013-05-31 14:47:00,
2013-05-31 09:52:00,68.7,53.3,29.63,West,261,5.0,7.0,58,0.00,,,0.00,661,Wunderground v.1.15,2013-05-31 14:52:00,
2013-05-31 09:57:00,68.6,52.8,29.64,SW,214,5.0,7.0,57,0.00,,,0.00,675,Wunderground v.1.15,2013-05-31 14:57:00,
2013-05-31 10:02:00,69.2,55.2,29.64,SSW,202,5.0,8.0,61,0.00,,,0.00,687,Wunderground v.1.15,2013-05-31 15:02:00,
2013-05-31 10:07:00,69.4,54.0,29.64,SW,229,5.0,8.0,58,0.00,,,0.00,700,Wunderground v.1.15,2013-05-31 15:07:00,
2013-05-31 10:12:00,69.3,54.4,29.63,SW,223,6.0,6.0,59,0.00,,,0.00,714,Wunderground v.1.15,2013-05-31 15:12:00,
2013-05-31 10:18:00,69.1,53.7,29.63,WSW,238,6.0,8.0,58,0.00,,,0.00,728,Wunderground v.1.15,2013-05-31 15:18:00,
2013-05-31 10:23:00,69.5,54.1,29.63,SW,222,6.0,8.0,58,0.00,,,0.00,740,Wunderground v.1.15,2013-05-31 15:23:00,
2013-05-31 10:28:00,70.0,55.9,29.63,SW,223,5.0,8.0,61,0.00,,,0.00,752,Wunderground v.1.15,2013-05-31 15:28:00,
2013-05-31 10:33:00,70.1,55.6,29.63,SW,233,5.0,5.0,60,0.00,,,0.00,763,Wunderground v.1.15,2013-05-31 15:33:00,
2013-05-31 10:39:00,70.6,55.1,29.63,SW,221,5.0,11.0,58,0.00,,,0.00,777,Wunderground v.1.15,2013-05-31 15:39:00,
2013-05-31 10:45:00,70.4,55.4,29.63,SW,223,6.0,9.0,59,0.00,,,0.00,789,Wunderground v.1.15,2013-05-31 15:45:00,
2013-05-31 10:51:00,71.2,55.7,29.64,SW,217,7.0,9.0,58,0.00,,,0.00,802,Wunderground v.1.15,2013-05-31 15:51:00,
2013-05-31 10:57:00,71.5,56.9,29.64,SSW,211,7.0,10.0,60,0.00,,,0.00,814,Wunderground v.1.15,2013-05-31 15:57:00,
2013-05-31 11:03:00,71.6,56.0,29.64,WSW,248,7.0,11.0,58,0.00,,,0.00,824,Wunderground v.1.15,2013-05-31 16:03:00,
2013-05-31 11:09:00,71.7,56.1,29.64,SW,234,8.0,11.0,58,0.00,,,0.00,837,Wunderground v.1.15,2013-05-31 16:09:00,
2013-05-31 11:14:00,71.5,55.9,29.64,SW,227,9.0,11.0,58,0.00,,,0.00,846,Wunderground v.1.15,2013-05-31 16:14:00,
2013-05-31 11:19:00,71.9,56.8,29.64,WSW,245,7.0,11.0,59,0.00,,,0.00,853,Wunderground v.1.15,2013-05-31 16:19:00,
2013-05-31 11:24:00,72.1,56.0,29.64,SSW,207,7.0,10.0,57,0.00,,,0.00,860,Wunderground v.1.15,2013-05-31 16:24:00,
2013-05-31 11:29:00,72.0,54.9,29.64,WSW,253,7.0,11.0,55,0.00,,,0.00,868,Wunderground v.1.15,2013-05-31 16:29:00,
2013-05-31 11:34:00,72.4,55.3,29.64,SSW,204,8.0,11.0,55,0.00,,,0.00,877,Wunderground v.1.15,2013-05-31 16:34:00,
2013-05-31 11:39:00,72.6,56.0,29.64,WSW,250,8.0,13.0,56,0.00,,,0.00,888,Wunderground v.1.15,2013-05-31 16:39:00,
2013-05-31 11:45:00,72.8,55.2,29.64,WSW,244,8.0,10.0,54,0.00,,,0.00,893,Wunderground v.1.15,2013-05-31 16:45:00,
2013-05-31 11:50:00,72.7,55.6,29.64,SW,225,9.0,12.0,55,0.00,,,0.00,900,Wunderground v.1.15,2013-05-31 16:50:00,
2013-05-31 11:55:00,72.3,54.7,29.64,SW,221,10.0,12.0,54,0.00,,,0.00,909,Wunderground v.1.15,2013-05-31 16:55:00,
2013-05-31 12:00:00,72.5,54.9,29.64,South,188,9.0,9.0,54,0.00,,,0.00,916,Wunderground v.1.15,2013-05-31 17:00:00,
2013-05-31 12:06:00,72.6,55.0,29.64,SW,219,9.0,11.0,54,0.00,,,0.00,921,Wunderground v.1.15,2013-05-31 17:06:00,
2013-05-31 12:12:00,73.2,58.0,29.64,SW,216,8.0,11.0,59,0.00,,,0.00,926,Wunderground v.1.15,2013-05-31 17:12:00,
2013-05-31 12:18:00,73.7,55.5,29.63,SSW,197,8.0,12.0,53,0.00,,,0.00,932,Wunderground v.1.15,2013-05-31 17:18:00,
2013-05-31 12:24:00,73.8,56.6,29.64,South,175,8.0,11.0,55,0.00,,,0.00,937,Wunderground v.1.15,2013-05-31 17:24:00,
2013-05-31 12:30:00,73.9,55.7,29.63,SW,217,8.0,11.0,53,0.00,,,0.00,946,Wunderground v.1.15,2013-05-31 17:30:00,
2013-05-31 12:36:00,73.9,55.7,29.64,SW,219,8.0,14.0,53,0.00,,,0.00,946,Wunderground v.1.15,2013-05-31 17:36:00,
2013-05-31 12:41:00,73.9,56.2,29.63,SW,229,8.0,9.0,54,0.00,,,0.00,947,Wunderground v.1.15,2013-05-31 17:41:00,
2013-05-31 12:46:00,74.2,56.0,29.63,WSW,247,7.0,12.0,53,0.00,,,0.00,951,Wunderground v.1.15,2013-05-31 17:46:00,
2013-05-31 12:51:00,74.4,57.2,29.63,WSW,237,7.0,13.0,55,0.00,,,0.00,951,Wunderground v.1.15,2013-05-31 17:51:00,
2013-05-31 12:57:00,74.6,56.9,29.63,SW,215,8.0,15.0,54,0.00,,,0.00,956,Wunderground v.1.15,2013-05-31 17:57:00,
2013-05-31 13:03:00,74.8,57.5,29.62,SSW,205,8.0,10.0,55,0.00,,,0.00,956,Wunderground v.1.15,2013-05-31 18:03:00,
2013-05-31 13:09:00,74.8,57.0,29.63,SSW,210,9.0,11.0,54,0.00,,,0.00,954,Wunderground v.1.15,2013-05-31 18:09:00,
2013-05-31 13:14:00,74.8,56.0,29.62,WSW,246,9.0,13.0,52,0.00,,,0.00,956,Wunderground v.1.15,2013-05-31 18:14:00,
2013-05-31 13:20:00,75.4,56.5,29.62,SSW,213,8.0,9.0,52,0.00,,,0.00,953,Wunderground v.1.15,2013-05-31 18:20:00,
2013-05-31 13:25:00,75.3,57.5,29.62,SSW,193,9.0,12.0,54,0.00,,,0.00,954,Wunderground v.1.15,2013-05-31 18:25:00,
2013-05-31 13:31:00,75.3,56.5,29.62,SW,227,9.0,10.0,52,0.00,,,0.00,956,Wunderground v.1.15,2013-05-31 18:31:00,
2013-05-31 13:36:00,75.4,56.0,29.62,WSW,246,9.0,15.0,51,0.00,,,0.00,954,Wunderground v.1.15,2013-05-31 18:36:00,
2013-05-31 13:42:00,75.2,55.3,29.62,SW,227,10.0,13.0,50,0.00,,,0.00,956,Wunderground v.1.15,2013-05-31 18:42:00,
2013-05-31 13:48:00,75.5,56.1,29.62,SW,216,9.0,14.0,51,0.00,,,0.00,951,Wunderground v.1.15,2013-05-31 18:48:00,
2013-05-31 13:53:00,76.1,56.7,29.62,SSW,213,10.0,13.0,51,0.00,,,0.00,949,Wunderground v.1.15,2013-05-31 18:53:00,
2013-05-31 13:58:00,75.9,57.5,29.62,SSE,167,11.0,13.0,53,0.00,,,0.00,947,Wunderground v.1.15,2013-05-31 18:58:00,
2013-05-31 14:03:00,76.0,58.2,29.61,WSW,243,9.0,14.0,54,0.00,,,0.00,944,Wunderground v.1.15,2013-05-31 19:03:00,
2013-05-31 14:09:00,76.1,56.1,29.61,SSW,208,10.0,18.0,50,0.00,,,0.00,956,Wunderground v.1.15,2013-05-31 19:09:00,
2013-05-31 14:15:00,76.0,56.0,29.61,SW,236,12.0,12.0,50,0.00,,,0.00,984,Wunderground v.1.15,2013-05-31 19:15:00,
2013-05-31 14:21:00,75.9,57.5,29.61,WSW,240,11.0,11.0,53,0.00,,,0.00,925,Wunderground v.1.15,2013-05-31 19:21:00,
2013-05-31 14:26:00,75.8,56.4,29.60,SW,231,9.0,15.0,51,0.00,,,0.00,712,Wunderground v.1.15,2013-05-31 19:26:00,
2013-05-31 14:32:00,76.4,56.4,29.60,SW,224,8.0,10.0,50,0.00,,,0.00,1085,Wunderground v.1.15,2013-05-31 19:32:00,
2013-05-31 14:37:00,76.2,56.7,29.61,SW,218,9.0,19.0,51,0.00,,,0.00,575,Wunderground v.1.15,2013-05-31 19:37:00,
2013-05-31 14:42:00,76.1,56.1,29.61,SSW,208,10.0,10.0,50,0.00,,,0.00,1009,Wunderground v.1.15,2013-05-31 19:42:00,
2013-05-31 14:47:00,76.9,57.9,29.61,SSW,196,10.0,14.0,52,0.00,,,0.00,970,Wunderground v.1.15,2013-05-31 19:47:00,
2013-05-31 14:52:00,77.4,56.2,29.61,SSW,202,10.0,14.0,48,0.00,,,0.00,916,Wunderground v.1.15,2013-05-31 19:52:00,
2013-05-31 14:57:00,76.7,56.1,29.60,SW,236,11.0,14.0,49,0.00,,,0.00,318,Wunderground v.1.15,2013-05-31 19:57:00,
2013-05-31 15:02:00,76.1,56.1,29.60,South,171,10.0,21.0,50,0.00,,,0.00,366,Wunderground v.1.15,2013-05-31 20:02:00,
2013-05-31 15:08:00,77.2,57.7,29.60,SW,227,9.0,21.0,51,0.00,,,0.00,1046,Wunderground v.1.15,2013-05-31 20:08:00,
2013-05-31 15:14:00,76.1,55.5,29.60,SSW,205,11.0,13.0,49,0.00,,,0.00,278,Wunderground v.1.15,2013-05-31 20:14:00,
2013-05-31 15:20:00,77.1,57.6,29.60,South,191,11.0,11.0,51,0.00,,,0.00,1071,Wunderground v.1.15,2013-05-31 20:20:00,
2013-05-31 15:25:00,77.0,55.8,29.60,SSW,198,11.0,16.0,48,0.00,,,0.00,329,Wunderground v.1.15,2013-05-31 20:25:00,
2013-05-31 15:30:00,76.7,56.7,29.60,South,188,10.0,13.0,50,0.00,,,0.00,867,Wunderground v.1.15,2013-05-31 20:30:00,
2013-05-31 15:35:00,77.1,55.3,29.59,SSW,212,11.0,17.0,47,0.00,,,0.00,1005,Wunderground v.1.15,2013-05-31 20:35:00,
2013-05-31 15:40:00,76.8,57.3,29.59,SW,215,11.0,11.0,51,0.00,,,0.00,448,Wunderground v.1.15,2013-05-31 20:40:00,
2013-05-31 15:45:00,76.4,56.4,29.59,SSE,163,11.0,20.0,50,0.00,,,0.00,599,Wunderground v.1.15,2013-05-31 20:45:00,
2013-05-31 15:51:00,76.5,55.9,29.59,SSW,192,10.0,12.0,49,0.00,,,0.00,359,Wunderground v.1.15,2013-05-31 20:51:00,
2013-05-31 15:57:00,76.6,56.0,29.59,South,170,11.0,18.0,49,0.00,,,0.00,568,Wunderground v.1.15,2013-05-31 20:57:00,
2013-05-31 16:03:00,75.7,55.7,29.59,SSW,213,11.0,11.0,50,0.00,,,0.00,396,Wunderground v.1.15,2013-05-31 21:03:00,
2013-05-31 16:09:00,75.5,57.2,29.59,SSW,207,10.0,14.0,53,0.00,,,0.00,308,Wunderground v.1.15,2013-05-31 21:09:00,
2013-05-31 16:14:00,75.4,56.5,29.59,SSW,209,10.0,11.0,52,0.00,,,0.00,411,Wunderground v.1.15,2013-05-31 21:14:00,
2013-05-31 16:19:00,75.8,58.0,29.59,SSW,194,9.0,13.0,54,0.00,,,0.00,353,Wunderground v.1.15,2013-05-31 21:19:00,
2013-05-31 16:24:00,76.1,56.1,29.58,SSW,207,10.0,17.0,50,0.00,,,0.00,418,Wunderground v.1.15,2013-05-31 21:24:00,
2013-05-31 16:29:00,75.9,55.4,29.57,SSW,198,11.0,17.0,49,0.00,,,0.00,480,Wunderground v.1.15,2013-05-31 21:29:00,
2013-05-31 16:34:00,77.0,56.4,29.57,SSW,196,10.0,16.0,49,0.00,,,0.00,798,Wunderground v.1.15,2013-05-31 21:34:00,
2013-05-31 16:40:00,77.4,55.6,29.58,SSW,213,11.0,16.0,47,0.00,,,0.00,155,Wunderground v.1.15,2013-05-31 21:40:00,
2013-05-31 16:45:00,77.1,54.1,29.58,SSW,202,12.0,16.0,45,0.00,,,0.00,682,Wunderground v.1.15,2013-05-31 21:45:00,
2013-05-31 16:51:00,77.2,53.0,29.58,SSW,205,12.0,12.0,43,0.00,,,0.00,670,Wunderground v.1.15,2013-05-31 21:51:00,
2013-05-31 16:57:00,76.9,54.5,29.59,SSW,205,11.0,14.0,46,0.00,,,0.00,204,Wunderground v.1.15,2013-05-31 21:57:00,
2013-05-31 17:02:00,76.4,50.3,29.59,South,188,12.0,22.0,40,0.00,,,0.00,352,Wunderground v.1.15,2013-05-31 22:02:00,
2013-05-31 17:07:00,76.9,50.7,29.59,SW,228,13.0,22.0,40,0.00,,,0.00,271,Wunderground v.1.15,2013-05-31 22:07:00,
2013-05-31 17:12:00,77.0,50.8,29.59,WSW,254,12.0,13.0,40,0.00,,,0.00,671,Wunderground v.1.15,2013-05-31 22:12:00,
2013-05-31 17:18:00,77.6,51.4,29.58,SSW,198,12.0,20.0,40,0.00,,,0.00,431,Wunderground v.1.15,2013-05-31 22:18:00,
2013-05-31 17:24:00,77.4,51.2,29.58,SSW,194,12.0,16.0,40,0.00,,,0.00,675,Wunderground v.1.15,2013-05-31 22:24:00,
2013-05-31 17:30:00,77.8,52.2,29.58,WSW,246,11.0,12.0,41,0.00,,,0.00,578,Wunderground v.1.15,2013-05-31 22:30:00,
2013-05-31 17:36:00,77.8,50.9,29.58,SSW,211,12.0,16.0,39,0.00,,,0.00,543,Wunderground v.1.15,2013-05-31 22:36:00,
2013-05-31 17:42:00,77.6,50.7,29.58,West,259,13.0,16.0,39,0.00,,,0.00,519,Wunderground v.1.15,2013-05-31 22:42:00,
2013-05-31 17:47:00,77.8,50.9,29.58,South,187,12.0,16.0,39,0.00,,,0.00,494,Wunderground v.1.15,2013-05-31 22:47:00,
2013-05-31 17:52:00,77.9,52.3,29.58,SSW,213,11.0,12.0,41,0.00,,,0.00,483,Wunderground v.1.15,2013-05-31 22:52:00,
2013-05-31 17:57:00,77.6,50.7,29.58,SW,224,10.0,14.0,39,0.00,,,0.00,480,Wunderground v.1.15,2013-05-31 22:57:00,
2013-05-31 18:03:00,76.8,50.6,29.57,SW,220,10.0,12.0,40,0.00,,,0.00,121,Wunderground v.1.15,2013-05-31 23:03:00,
2013-05-31 18:09:00,77.2,50.3,29.57,SSW,192,9.0,12.0,39,0.00,,,0.00,475,Wunderground v.1.15,2013-05-31 23:09:00,
2013-05-31 18:14:00,77.1,50.2,29.57,SSW,204,11.0,12.0,39,0.00,,,0.00,146,Wunderground v.1.15,2013-05-31 23:14:00,
2013-05-31 18:19:00,76.9,50.7,29.57,WSW,245,10.0,12.0,40,0.00,,,0.00,468,Wunderground v.1.15,2013-05-31 23:19:00,
2013-05-31 18:24:00,76.6,49.8,29.57,SW,216,10.0,15.0,39,0.00,,,0.00,97,Wunderground v.1.15,2013-05-31 23:24:00,
2013-05-31 18:29:00,76.4,49.6,29.57,South,191,11.0,16.0,39,0.00,,,0.00,258,Wunderground v.1.15,2013-05-31 23:29:00,
2013-05-31 18:35:00,76.9,50.7,29.57,SW,215,10.0,11.0,40,0.00,,,0.00,345,Wunderground v.1.15,2013-05-31 23:35:00,
2013-05-31 18:40:00,77.0,49.4,29.57,WSW,239,10.0,11.0,38,0.00,,,0.00,330,Wunderground v.1.15,2013-05-31 23:40:00,
2013-05-31 18:45:00,77.0,50.1,29.56,SW,216,11.0,15.0,39,0.00,,,0.00,334,Wunderground v.1.15,2013-05-31 23:45:00,
2013-05-31 18:51:00,76.8,50.0,29.56,SW,217,10.0,10.0,39,0.00,,,0.00,332,Wunderground v.1.15,2013-05-31 23:51:00,
2013-05-31 18:57:00,76.8,50.0,29.56,SW,233,9.0,13.0,39,0.00,,,0.00,302,Wunderground v.1.15,2013-05-31 23:57:00,
2013-05-31 19:02:00,76.4,50.3,29.56,SSW,207,9.0,9.0,40,0.00,,,0.00,174,Wunderground v.1.15,2013-06-01 00:02:00,
2013-05-31 19:07:00,75.8,49.8,29.56,South,184,9.0,9.0,40,0.00,,,0.00,98,Wunderground v.1.15,2013-06-01 00:07:00,
2013-05-31 19:12:00,75.3,50.0,29.57,SW,225,8.0,9.0,41,0.00,,,0.00,141,Wunderground v.1.15,2013-06-01 00:12:00,
2013-05-31 19:18:00,75.3,51.3,29.57,SSW,204,7.0,10.0,43,0.00,,,0.00,223,Wunderground v.1.15,2013-06-01 00:18:00,
2013-05-31 19:24:00,75.5,50.8,29.57,SW,219,7.0,9.0,42,0.00,,,0.00,202,Wunderground v.1.15,2013-06-01 00:24:00,
2013-05-31 19:30:00,75.4,52.0,29.57,SW,229,6.0,6.0,44,0.00,,,0.00,213,Wunderground v.1.15,2013-06-01 00:30:00,
2013-05-31 19:36:00,75.4,50.7,29.57,West,267,6.0,14.0,42,0.00,,,0.00,153,Wunderground v.1.15,2013-06-01 00:36:00,
2013-05-31 19:41:00,75.4,50.1,29.57,SW,236,8.0,9.0,41,0.00,,,0.00,127,Wunderground v.1.15,2013-06-01 00:41:00,
2013-05-31 19:46:00,75.3,50.0,29.57,West,272,9.0,11.0,41,0.00,,,0.00,107,Wunderground v.1.15,2013-06-01 00:46:00,
2013-05-31 19:51:00,75.1,51.1,29.58,West,270,9.0,11.0,43,0.00,,,0.00,53,Wunderground v.1.15,2013-06-01 00:51:00,
2013-05-31 19:56:00,74.9,51.5,29.58,WNW,282,9.0,12.0,44,0.00,,,0.00,77,Wunderground v.1.15,2013-06-01 00:56:00,
2013-05-31 20:02:00,74.4,51.7,29.58,West,265,8.0,9.0,45,0.00,,,0.00,60,Wunderground v.1.15,2013-06-01 01:02:00,
2013-05-31 20:07:00,74.1,50.8,29.58,WSW,254,8.0,13.0,44,0.00,,,0.00,37,Wunderground v.1.15,2013-06-01 01:07:00,
2013-05-31 20:12:00,73.8,50.5,29.59,West,261,8.0,8.0,44,0.00,,,0.00,33,Wunderground v.1.15,2013-06-01 01:12:00,
2013-05-31 20:17:00,73.4,50.8,29.59,West,280,8.0,10.0,45,0.00,,,0.00,25,Wunderground v.1.15,2013-06-01 01:17:00,
2013-05-31 20:22:00,73.1,50.5,29.59,West,264,8.0,11.0,45,0.00,,,0.00,21,Wunderground v.1.15,2013-06-01 01:22:00,
2013-05-31 20:28:00,72.7,50.1,29.59,WNW,284,8.0,12.0,45,0.00,,,0.00,19,Wunderground v.1.15,2013-06-01 01:28:00,
2013-05-31 20:33:00,72.3,50.4,29.59,NW,325,8.0,10.0,46,0.00,,,0.00,14,Wunderground v.1.15,2013-06-01 01:33:00,
2013-05-31 20:39:00,72.1,50.2,29.59,NW,312,8.0,10.0,46,0.00,,,0.00,7,Wunderground v.1.15,2013-06-01 01:39:00,
2013-05-31 20:44:00,71.8,49.9,29.59,WNW,296,9.0,12.0,46,0.00,,,0.00,5,Wunderground v.1.15,2013-06-01 01:44:00,
2013-05-31 20:50:00,71.5,50.2,29.59,WNW,303,9.0,10.0,47,0.00,,,0.00,0,Wunderground v.1.15,2013-06-01 01:50:00,
2013-05-31 20:56:00,71.2,49.4,29.59,NW,325,9.0,11.0,46,0.00,,,0.00,0,Wunderground v.1.15,2013-06-01 01:56:00,
2013-05-31 21:02:00,70.9,49.7,29.59,WNW,303,8.0,8.0,47,0.00,,,0.00,0,Wunderground v.1.15,2013-06-01 02:02:00,
2013-05-31 21:07:00,70.8,50.1,29.59,West,263,8.0,12.0,48,0.00,,,0.00,0,Wunderground v.1.15,2013-06-01 02:07:00,
2013-05-31 21:12:00,70.5,49.9,29.60,WNW,293,8.0,9.0,48,0.00,,,0.00,0,Wunderground v.1.15,2013-06-01 02:12:00,
2013-05-31 21:17:00,70.1,50.0,29.60,West,278,8.0,11.0,49,0.00,,,0.00,0,Wunderground v.1.15,2013-06-01 02:17:00,
2013-05-31 21:22:00,69.9,49.9,29.60,WNW,288,9.0,12.0,49,0.00,,,0.00,0,Wunderground v.1.15,2013-06-01 02:22:00,
2013-05-31 21:28:00,69.6,49.6,29.60,West,281,9.0,14.0,49,0.00,,,0.00,0,Wunderground v.1.15,2013-06-01 02:28:00,
2013-05-31 21:34:00,69.4,49.9,29.60,West,275,8.0,11.0,50,0.00,,,0.00,0,Wunderground v.1.15,2013-06-01 02:34:00,
2013-05-31 21:39:00,69.2,49.8,29.60,WNW,286,8.0,11.0,50,0.00,,,0.00,0,Wunderground v.1.15,2013-06-01 02:39:00,
2013-05-31 21:44:00,68.9,49.5,29.61,WNW,296,8.0,12.0,50,0.00,,,0.00,0,Wunderground v.1.15,2013-06-01 02:44:00,
2013-05-31 21:49:00,68.4,49.6,29.61,NW,312,8.0,13.0,51,0.00,,,0.00,0,Wunderground v.1.15,2013-06-01 02:49:00,
2013-05-31 21:54:00,68.1,49.8,29.61,WNW,298,8.0,16.0,52,0.00,,,0.00,0,Wunderground v.1.15,2013-06-01 02:54:00,
2013-05-31 21:59:00,67.9,49.6,29.62,NW,306,9.0,16.0,52,0.00,,,0.00,0,Wunderground v.1.15,2013-06-01 02:59:00,
2013-05-31 22:05:00,67.6,49.3,29.62,WNW,288,8.0,12.0,52,0.00,,,0.00,0,Wunderground v.1.15,2013-06-01 03:05:00,
2013-05-31 22:11:00,67.3,49.6,29.63,West,267,7.0,7.0,53,0.00,,,0.00,0,Wunderground v.1.15,2013-06-01 03:11:00,
2013-05-31 22:17:00,66.9,49.2,29.63,West,273,6.0,11.0,53,0.00,,,0.00,0,Wunderground v.1.15,2013-06-01 03:17:00,
2013-05-31 22:23:00,66.8,49.1,29.64,NW,306,8.0,12.0,53,0.00,,,0.00,0,Wunderground v.1.15,2013-06-01 03:23:00,
2013-05-31 22:28:00,66.6,48.9,29.64,West,274,9.0,12.0,53,0.00,,,0.00,0,Wunderground v.1.15,2013-06-01 03:28:00,
2013-05-31 22:33:00,66.4,48.7,29.64,WNW,282,8.0,9.0,53,0.00,,,0.00,0,Wunderground v.1.15,2013-06-01 03:33:00,
2013-05-31 22:38:00,66.1,48.5,29.65,West,259,7.0,9.0,53,0.00,,,0.00,0,Wunderground v.1.15,2013-06-01 03:38:00,
2013-05-31 22:43:00,65.7,48.6,29.65,West,264,5.0,10.0,54,0.00,,,0.00,0,Wunderground v.1.15,2013-06-01 03:43:00,
2013-05-31 22:49:00,65.1,48.5,29.66,SW,234,5.0,10.0,55,0.00,,,0.00,0,Wunderground v.1.15,2013-06-01 03:49:00,
2013-05-31 22:55:00,64.3,48.3,29.66,WSW,249,5.0,8.0,56,0.00,,,0.00,0,Wunderground v.1.15,2013-06-01 03:55:00,
2013-05-31 23:01:00,63.9,48.4,29.66,SW,235,4.0,10.0,57,0.00,,,0.00,0,Wunderground v.1.15,2013-06-01 04:01:00,
2013-05-31 23:02:00,63.9,48.4,29.66,WSW,249,5.0,10.0,57,0.00,,,0.00,0,Wunderground v.1.15,2013-06-01 04:02:00,
2013-05-31 23:06:00,64.0,48.0,29.66,WSW,248,6.0,10.0,56,0.00,,,0.00,0,Wunderground v.1.15,2013-06-01 04:06:00,
2013-05-31 23:10:00,64.3,48.3,29.66,WSW,241,7.0,7.0,56,0.00,,,0.00,0,Wunderground v.1.15,2013-06-01 04:10:00,
2013-05-31 23:12:00,64.4,48.4,29.66,WSW,251,8.0,9.0,56,0.00,,,0.00,0,Wunderground v.1.15,2013-06-01 04:12:00,
2013-05-31 23:18:00,64.5,48.4,29.66,WSW,237,9.0,12.0,56,0.00,,,0.00,0,Wunderground v.1.15,2013-06-01 04:18:00,
2013-05-31 23:24:00,64.2,48.6,29.66,WSW,248,8.0,11.0,57,0.00,,,0.00,0,Wunderground v.1.15,2013-06-01 04:24:00,
2013-05-31 23:30:00,63.7,48.6,29.66,West,270,9.0,15.0,58,0.00,,,0.00,0,Wunderground v.1.15,2013-06-01 04:30:00,
2013-05-31 23:36:00,63.5,48.9,29.66,WNW,294,11.0,16.0,59,0.00,,,0.00,0,Wunderground v.1.15,2013-06-01 04:36:00,
2013-05-31 23:42:00,63.3,48.7,29.67,West,262,12.0,17.0,59,0.00,,,0.00,0,Wunderground v.1.15,2013-06-01 04:42:00,
2013-05-31 23:47:00,63.2,48.6,29.67,WSW,258,12.0,17.0,59,0.00,,,0.00,0,Wunderground v.1.15,2013-06-01 04:47:00,
2013-05-31 23:52:00,62.9,48.3,29.67,West,277,12.0,14.0,59,0.00,,,0.00,0,Wunderground v.1.15,2013-06-01 04:52:00,
2013-05-31 23:57:00,62.7,48.2,29.67,WNW,286,12.0,14.0,59,0.00,,,0.00,0,Wunderground v.1.15,2013-06-01 04:57:00,